Weather History for Dyersburg, TN

Change the Weather History Date:

Saturday, February 16, 2013

  Actual Average Record
Temperature  
Mean Temperature 32 °F -  
Max Temperature 37 °F 50 °F 71 °F (2006)
Min Temperature 26 °F 34 °F 24 °F (2004)
Degree Days  
Heating Degree Days 34    
Moisture  
Dew Point 13 °F    
Average Humidity 48    
Maximum Humidity 64    
Minimum Humidity 35    
Precipitation  
Precipitation 0.00 in - - ()
Sea Level Pressure  
Sea Level Pressure 30.25 in    
Wind  
Wind Speed 5 mph (NW)    
Max Wind Speed 15 mph    
Max Gust Speed 21 mph    
Visibility 10 miles    
Events      
Averages and records for this station are not official NWS values.
T = Trace of Precipitation, MM = Missing Value Source: NWS Daily Summary

Daily Weather History Graph

Daily Weather History Graph

Search for Another Location

Airport:

Trip Planner

Search our weather history database for the weather conditions in past years. The results will help you decide how hot, cold, wet, or windy it might be!

Date:

Astronomy

Feb. 16, 2013 Rise Set
Actual Time 6:43 AM CST 5:40 PM CST
Civil Twilight 6:17 AM CST 6:06 PM CST
Nautical Twilight 5:47 AM CST 6:36 PM CST
Astronomical Twilight 5:17 AM CST 7:06 PM CST
Moon 10:10 AM CST (2/16) No Moon Set
Length of Visible Light 11h 49m
Length of Day
10h 56m
Waxing Crescent, 39% of the Moon is Illuminated
Feb 16
Waxing Crescent
Feb 17
First Quarter
Feb 25
Full
Mar 4
Last Quarter
Mar 11
New

Hourly Weather History & Observations

Time (CST) Temp. Windchill Dew Point Humidity Pressure Visibility Wind Dir Wind Speed Gust Speed Precip Events Conditions
12:15 AM 30.2 °F 25.4 °F 12.2 °F 47% 30.23 in 10.0 mi NNE 4.6 mph - N/A   Partly Cloudy
12:35 AM 30.2 °F 26.7 °F 12.2 °F 47% 30.23 in 10.0 mi NNE 3.5 mph - N/A   Mostly Cloudy
12:55 AM 30.2 °F 26.7 °F 12.2 °F 47% 30.23 in 10.0 mi North 3.5 mph - N/A   Mostly Cloudy
1:15 AM 30.2 °F - 12.2 °F 47% 30.23 in 10.0 mi Calm Calm - N/A   Overcast
1:35 AM 28.4 °F - 12.2 °F 51% 30.23 in 10.0 mi Calm Calm - N/A   Overcast
1:55 AM 28.4 °F - 12.2 °F 51% 30.22 in 10.0 mi Calm Calm - N/A   Overcast
2:15 AM 28.4 °F - 14.0 °F 55% 30.23 in 10.0 mi Calm Calm - N/A   Overcast
2:35 AM 26.6 °F - 12.2 °F 55% 30.23 in 10.0 mi Calm Calm - N/A   Scattered Clouds
2:55 AM 28.4 °F 24.6 °F 15.8 °F 59% 30.23 in 10.0 mi WNW 3.5 mph - N/A   Clear
3:15 AM 28.4 °F - 14.0 °F 55% 30.23 in 10.0 mi Calm Calm - N/A   Clear
3:35 AM 26.6 °F - 14.0 °F 59% 30.22 in 10.0 mi Calm Calm - N/A   Clear
3:55 AM 26.6 °F - 14.0 °F 59% 30.22 in 10.0 mi Calm Calm - N/A   Partly Cloudy
4:15 AM 26.6 °F - 14.0 °F 59% 30.22 in 10.0 mi Calm Calm - N/A   Clear
4:35 AM 28.4 °F 24.6 °F 17.6 °F 64% 30.22 in 10.0 mi WNW 3.5 mph - N/A   Clear
5:15 AM 28.4 °F 24.6 °F 17.6 °F 64% 30.22 in 10.0 mi WNW 3.5 mph - N/A   Clear
5:35 AM 28.4 °F 23.3 °F 15.8 °F 59% 30.22 in 10.0 mi NW 4.6 mph - N/A   Clear
5:55 AM 28.4 °F 23.3 °F 12.2 °F 51% 30.23 in 10.0 mi NW 4.6 mph - N/A   Clear
6:15 AM 28.4 °F 23.3 °F 12.2 °F 51% 30.23 in 10.0 mi NW 4.6 mph - N/A   Clear
6:35 AM 28.4 °F 22.2 °F 12.2 °F 51% 30.23 in 10.0 mi NNW 5.8 mph - N/A   Clear
6:55 AM 28.4 °F 21.2 °F 12.2 °F 51% 30.24 in 10.0 mi NNW 6.9 mph - N/A   Clear
7:15 AM 28.4 °F 21.2 °F 12.2 °F 51% 30.24 in 10.0 mi NNW 6.9 mph - N/A   Clear
7:35 AM 28.4 °F 19.7 °F 14.0 °F 55% 30.24 in 10.0 mi NNW 9.2 mph - N/A   Clear
7:55 AM 28.4 °F 19.1 °F 14.0 °F 55% 30.25 in 10.0 mi NNW 10.4 mph 18.4 mph N/A   Clear
8:15 AM 30.2 °F 20.2 °F 15.8 °F 55% 30.25 in 10.0 mi NNW 12.7 mph - N/A   Partly Cloudy
8:35 AM 30.2 °F 20.2 °F 15.8 °F 55% 30.25 in 10.0 mi North 12.7 mph - N/A   Clear
8:55 AM 30.2 °F 20.2 °F 15.8 °F 55% 30.26 in 10.0 mi North 12.7 mph - N/A   Clear
9:15 AM 30.2 °F 19.3 °F 15.8 °F 55% 30.26 in 10.0 mi NNW 15.0 mph 19.6 mph N/A   Clear
9:35 AM 32.0 °F 22.5 °F 15.8 °F 51% 30.27 in 10.0 mi NNW 12.7 mph - N/A   Mostly Cloudy
9:55 AM 33.8 °F 25.8 °F 15.8 °F 48% 30.27 in 10.0 mi NNW 10.4 mph - N/A   Mostly Cloudy
10:15 AM 33.8 °F 25.8 °F 15.8 °F 48% 30.28 in 10.0 mi NNW 10.4 mph 16.1 mph N/A   Partly Cloudy
10:35 AM 33.8 °F 25.3 °F 15.8 °F 48% 30.28 in 10.0 mi North 11.5 mph - N/A   Partly Cloudy
10:55 AM 33.8 °F 27.0 °F 15.8 °F 48% 30.28 in 10.0 mi NW 8.1 mph 16.1 mph N/A   Partly Cloudy
11:15 AM 33.8 °F 26.4 °F 15.8 °F 48% 30.28 in 10.0 mi NNW 9.2 mph - N/A   Scattered Clouds
11:35 AM 35.6 °F 26.2 °F 15.8 °F 44% 30.28 in 10.0 mi NW 15.0 mph 18.4 mph N/A   Partly Cloudy
11:55 AM 35.6 °F 28.6 °F 15.8 °F 44% 30.27 in 10.0 mi WNW 9.2 mph - N/A   Mostly Cloudy
12:15 PM 35.6 °F 27.5 °F 14.0 °F 41% 30.27 in 10.0 mi NW 11.5 mph 16.1 mph N/A   Overcast
12:35 PM 35.6 °F 27.1 °F 15.8 °F 44% 30.27 in 10.0 mi NW 12.7 mph 20.7 mph N/A   Overcast
12:55 PM 35.6 °F 27.5 °F 15.8 °F 44% 30.26 in 10.0 mi NW 11.5 mph 16.1 mph N/A   Scattered Clouds
1:15 PM 37.4 °F 29.3 °F 15.8 °F 41% 30.26 in 10.0 mi WNW 12.7 mph 19.6 mph N/A   Partly Cloudy
1:35 PM 37.4 °F 29.8 °F 12.2 °F 36% 30.25 in 10.0 mi NNW 11.5 mph 16.1 mph N/A   Partly Cloudy
1:55 PM 37.4 °F 30.3 °F 12.2 °F 36% 30.25 in 10.0 mi WNW 10.4 mph 16.1 mph N/A   Partly Cloudy
2:15 PM 37.4 °F 32.1 °F 12.2 °F 36% 30.24 in 10.0 mi NW 6.9 mph 17.3 mph N/A   Partly Cloudy
2:35 PM 35.6 °F 29.2 °F 12.2 °F 38% 30.24 in 10.0 mi NW 8.1 mph 17.3 mph N/A   Partly Cloudy
2:55 PM 37.4 °F 29.3 °F 14.0 °F 38% 30.24 in 10.0 mi NNW 12.7 mph 16.1 mph N/A   Scattered Clouds
3:15 PM 37.4 °F 29.3 °F 14.0 °F 38% 30.24 in 10.0 mi NNW 12.7 mph 17.3 mph N/A   Scattered Clouds
3:35 PM 35.6 °F 28.6 °F 12.2 °F 38% 30.24 in 10.0 mi WNW 9.2 mph - N/A   Mostly Cloudy
3:55 PM 37.4 °F 32.1 °F 12.2 °F 36% 30.25 in 10.0 mi WNW 6.9 mph - N/A   Partly Cloudy
4:15 PM 35.6 °F 28.6 °F 12.2 °F 38% 30.25 in 10.0 mi NW 9.2 mph - N/A   Scattered Clouds
4:35 PM 35.6 °F 28.6 °F 10.4 °F 35% 30.24 in 10.0 mi NW 9.2 mph - N/A   Scattered Clouds
4:55 PM 35.6 °F 29.2 °F 12.2 °F 38% 30.25 in 10.0 mi NW 8.1 mph - N/A   Clear
5:15 PM 35.6 °F 30.7 °F 10.4 °F 35% 30.25 in 10.0 mi WNW 5.8 mph - N/A   Clear
5:35 PM 35.6 °F 30.7 °F 12.2 °F 38% 30.24 in 10.0 mi NW 5.8 mph - N/A   Clear
5:55 PM 33.8 °F 29.6 °F 12.2 °F 41% 30.25 in 10.0 mi West 4.6 mph - N/A   Clear
6:15 PM 33.8 °F - 12.2 °F 41% 30.25 in 10.0 mi Calm Calm - N/A   Clear
6:35 PM 30.2 °F - 12.2 °F 47% 30.25 in 10.0 mi Calm Calm - N/A   Clear
6:55 PM 30.2 °F - 10.4 °F 44% 30.25 in 10.0 mi Calm Calm - N/A   Clear
7:15 PM 28.4 °F 24.6 °F 10.4 °F 47% 30.25 in 10.0 mi South 3.5 mph - N/A   Clear
7:35 PM 28.4 °F 24.6 °F 12.2 °F 51% 30.25 in 10.0 mi South 3.5 mph - N/A   Clear
7:55 PM 28.4 °F 24.6 °F 12.2 °F 51% 30.25 in 10.0 mi SSW 3.5 mph - N/A   Clear
8:15 PM 28.4 °F - 10.4 °F 47% 30.25 in 10.0 mi Calm Calm - N/A   Clear
8:35 PM 28.4 °F 24.6 °F 10.4 °F 47% 30.25 in 10.0 mi SSW 3.5 mph - N/A   Clear
8:55 PM 30.2 °F - 10.4 °F 44% 30.25 in 10.0 mi Calm Calm - N/A   Clear
9:15 PM 30.2 °F - 10.4 °F 44% 30.25 in 10.0 mi Calm Calm - N/A   Clear
9:35 PM 28.4 °F - 10.4 °F 47% 30.25 in 10.0 mi Calm Calm - N/A   Clear
9:55 PM 28.4 °F - 10.4 °F 47% 30.25 in 10.0 mi Calm Calm - N/A   Clear
10:15 PM 28.4 °F - 10.4 °F 47% 30.25 in 10.0 mi Calm Calm - N/A   Clear
10:35 PM 28.4 °F - 10.4 °F 47% 30.25 in 10.0 mi Calm Calm - N/A   Clear
10:55 PM 28.4 °F - 10.4 °F 47% 30.25 in 10.0 mi Calm Calm - N/A   Clear
11:15 PM 26.6 °F 22.6 °F 10.4 °F 51% 30.25 in 10.0 mi SSW 3.5 mph - N/A   Clear
11:35 PM 28.4 °F 24.6 °F 10.4 °F 47% 30.25 in 10.0 mi South 3.5 mph - N/A   Partly Cloudy
11:55 PM 28.4 °F - 10.4 °F 47% 30.25 in 10.0 mi Calm Calm - N/A   Scattered Clouds